Home   Weather   Nukualofa   Past weeks

Flag for Tonga Past Weather in Nukualofa, Tonga — Yesterday and Last 2 Weeks

Now
68 °F

Passing clouds.


Feels Like: 68 °F
Forecast: 70 / 82 °F
Wind: 12 mph from Northwest

Location: Fua'Amotu

Current Time: Sep 27, 2016 at 11:40:25 PM

Latest Report: Sep 27, 2016 at 11:00 PM


Visibility: N/A

Pressure: 29.86 "Hg

Humidity: 94%

Dew Point: 66 °F

Location of NukualofaLocation

Past Weather in Nukualofa — Graph

°F

Nukualofa Temperature Yesterday

Maximum temperature yesterday: 82 °F (at 2:00 PM)
Minimum temperature yesterday: 68 °F (at 4:00 AM)
Average temperature yesterday: 75 °F

High & Low Weather Summary for the Past Weeks

 TemperatureHumidityPressure
High82 °F (Sep 26, 2:00 PM)100% (Sep 15, 7:00 AM)30.21 "Hg (Sep 15, 7:00 AM)
Low61 °F (Sep 19, 6:00 AM)54% (Sep 16, 10:00 AM)29.80 "Hg (Sep 22, 2:00 PM)
Average72 °F78%30.00 "Hg
* Reported Sep 12 10:00 PM — Sep 27 10:00 PM, Nukualofa, Weather by CustomWeather, © 2016

Note: Actual official high and low records may vary slightly from our data, if they occured in-between our weather recording intervals... More about our weather records

Advertising

Nukualofa Weather History for the Previous 24 Hours

Scroll right to see more
 ConditionsComfort  
Time TempWeatherWind HumidityBarometerVisibility
10:00 PM
Tue, Sep 27
70 °FPassing clouds.12 mph88%29.86 "HgN/A
9:00 PM70 °FPassing clouds.13 mph88%29.86 "HgN/A
8:00 PM70 °FPassing clouds.13 mph88%29.86 "HgN/A
7:00 PM79 °FPartly cloudy.14 mph89%29.83 "HgN/A
6:00 PM81 °FPartly sunny.15 mph84%29.80 "HgN/A
5:00 PM82 °FBroken clouds.15 mph79%29.80 "HgN/A
4:00 PM82 °FBroken clouds.15 mph79%29.80 "HgN/A
3:00 PM82 °FBroken clouds.17 mph79%29.83 "HgN/A
2:00 PM81 °FBroken clouds.14 mph89%29.83 "HgN/A
1:00 PM81 °FBroken clouds.12 mph84%29.86 "HgN/A
12:00 PM81 °FBroken clouds.8 mph79%29.86 "HgN/A
11:00 AM79 °FBroken clouds.14 mph84%29.89 "HgN/A
10:00 AM81 °FBroken clouds.13 mph84%29.89 "HgN/A
9:00 AM77 °FBroken clouds.10 mph94%29.89 "HgN/A
8:00 AM75 °FBroken clouds.No wind94%29.89 "HgN/A
7:00 AM73 °FBroken clouds.No wind94%29.89 "HgN/A
6:00 AM73 °FPassing clouds.No wind94%29.89 "HgN/A
4:00 AM70 °FPassing clouds.No wind100%29.86 "HgN/A
3:00 AM68 °FPassing clouds.No wind100%29.86 "HgN/A
2:00 AM70 °FPassing clouds.No wind94%29.89 "HgN/A
1:00 AM70 °FPassing clouds.No wind88%29.92 "HgN/A
12:00 AM70 °FPassing clouds.No wind100%29.95 "HgN/A
11:00 PM
Mon, Sep 26
70 °FPassing clouds.No wind94%29.95 "HgN/A
Weather by CustomWeather, © 2016

See weather overviewHow to use our weather pages